Change the Weather History Date:

Saturday, November 2, 2013

  Actual Average Record
Temperature  
Mean Temperature 63 °F 63 °F  
Max Temperature 76 °F 75 °F 87 °F (1971)
Min Temperature 50 °F 52 °F 30 °F (1966)
Degree Days  
Heating Degree Days 2 4  
Month to date heating degree days 2 8  
Since 1 July heating degree days 32 63  
Cooling Degree Days 0 2  
Month to date cooling degree days 1 5  
Year to date cooling degree days 2481 2467  
Growing Degree Days 12 (Base 50)    
Moisture  
Dew Point 46 °F    
Average Humidity 61    
Maximum Humidity 86    
Minimum Humidity 35    
Precipitation  
Precipitation 0.00 in 0.16 in 1.92 in (1995)
Month to date precipitation T 0.32  
Year to date precipitation 58.48 56.28  
Snow  
Snow 0.00 in 0.00 in 0.00 in (2002)
Month to date snowfall 0.0 0.0  
Since 1 July snowfall 0.0 0.0  
Snow Depth 0.00 in    
Sea Level Pressure  
Sea Level Pressure 30.01 in    
Wind  
Wind Speed 7 mph (NW)    
Max Wind Speed 18 mph    
Max Gust Speed 24 mph    
Visibility 10 miles    
Events      
T = Trace of Precipitation, MM = Missing Value Source: NWS Daily Summary

Daily Weather History Graph

Daily Weather History Graph

Search for Another Location

Airport or City:

Trip Planner

Search our weather history database for the weather conditions in past years. The results will help you decide how hot, cold, wet, or windy it might be!

Date:

Astronomy

Nov. 02, 2013 Rise Set
Actual Time 7:08 AM CDT 6:03 PM CDT
Civil Twilight 6:43 AM CDT 6:28 PM CDT
Nautical Twilight 6:15 AM CDT 6:57 PM CDT
Astronomical Twilight 5:47 AM CDT 7:25 PM CDT
Moon 6:08 AM CDT (11/2) 5:33 PM CDT (11/2)
Length of Visible Light 11h 44m
Length of Day
10h 55m
Waning Crescent, 1% of the Moon is Illuminated
Nov 2
Waning Crescent
Nov 3
New
Nov 9
First Quarter
Nov 17
Full
Nov 25
Last Quarter

Hourly Weather History & Observations

Time (CDT) Temp. Dew Point Humidity Pressure Visibility Wind Dir Wind Speed Gust Speed Precip Events Conditions
12:56 AM 55.0 °F 48.9 °F 80% 29.93 in 10.0 mi Calm Calm - N/A   Clear
1:56 AM 53.1 °F 48.0 °F 83% 29.93 in 10.0 mi NW 3.5 mph - N/A   Clear
2:56 AM 53.1 °F 48.0 °F 83% 29.92 in 10.0 mi NW 4.6 mph - N/A   Clear
3:56 AM 50.0 °F 46.9 °F 89% 29.91 in 10.0 mi NNW 3.5 mph - N/A   Clear
4:56 AM 50.0 °F 46.0 °F 86% 29.93 in 10.0 mi Calm Calm - N/A   Clear
5:56 AM 52.0 °F 46.9 °F 83% 29.95 in 10.0 mi NW 4.6 mph - N/A   Clear
6:56 AM 53.1 °F 46.9 °F 80% 29.97 in 10.0 mi NW 5.8 mph - N/A   Mostly Cloudy
7:56 AM 55.9 °F 48.9 °F 77% 29.99 in 10.0 mi NW 4.6 mph - N/A   Mostly Cloudy
8:56 AM 60.1 °F 51.1 °F 72% 30.01 in 10.0 mi NW 4.6 mph - N/A   Mostly Cloudy
9:56 AM 66.9 °F 50.0 °F 54% 30.03 in 10.0 mi WNW 4.6 mph - N/A   Partly Cloudy
10:56 AM 70.0 °F 48.9 °F 47% 30.03 in 10.0 mi WNW 5.8 mph - N/A   Partly Cloudy
11:56 AM 73.0 °F 46.9 °F 39% 30.02 in 10.0 mi WNW 9.2 mph - N/A   Clear
12:56 PM 73.9 °F 46.0 °F 37% 30.00 in 10.0 mi WNW 10.4 mph - N/A   Partly Cloudy
1:56 PM 75.9 °F 46.9 °F 36% 29.99 in 10.0 mi NNW 11.5 mph 19.6 mph N/A   Partly Cloudy
2:56 PM 73.9 °F 46.0 °F 37% 29.98 in 10.0 mi North 9.2 mph - N/A   Scattered Clouds
3:56 PM 73.0 °F 45.0 °F 37% 29.98 in 10.0 mi NNW 12.7 mph 20.7 mph N/A   Scattered Clouds
4:56 PM 71.1 °F 44.1 °F 38% 30.00 in 10.0 mi NW 9.2 mph - N/A   Partly Cloudy
5:56 PM 66.0 °F 44.1 °F 45% 30.02 in 10.0 mi NW 6.9 mph - N/A   Partly Cloudy
6:56 PM 62.1 °F 45.0 °F 53% 30.06 in 10.0 mi NW 4.6 mph - N/A   Clear
7:56 PM 57.9 °F 43.0 °F 58% 30.09 in 10.0 mi NW 5.8 mph - N/A   Clear
8:56 PM 55.9 °F 42.1 °F 60% 30.12 in 10.0 mi NW 5.8 mph - N/A   Clear
9:56 PM 57.0 °F 42.1 °F 57% 30.13 in 10.0 mi NNW 15.0 mph - N/A   Clear
10:56 PM 55.0 °F 42.1 °F 62% 30.14 in 10.0 mi North 12.7 mph - N/A   Clear
11:56 PM 54.0 °F 41.0 °F 62% 30.14 in 10.0 mi North 11.5 mph 20.7 mph N/A   Clear